Starlink 5915

operational
NORAD ID: 55987 Int'l Des: 2023-042 Owner: SPXS Country: US Constellation: starlink
LEOCIRCULAR

Starlink 5915について

説明を読み込み中...

リアルタイム位置

3D地球を読み込み中...

次回通過

高度履歴

Altitude vs Time

uPlot chart will show altitude changes over time

軌道要素

1 55987U 23042B 25302.69335270 .00000107 00000-0 23006-4 0 9995
2 55987 43.0000 48.0383 0000587 305.2693 54.8094 15.02536205143206
Epoch: Oct 29, 2025 • Age: 27 hours

現在のステータス

高度 562.5 km
速度 7.59 km/s
衛星直下点 42.89°N, 142.56°E
打ち上げ日 Mar 24, 2023
運用期間 2.6 years
タイプ internet

技術仕様

分類 Payload
質量 305.00 kg
乾燥質量 290.00 kg
総質量 305.00 kg
長さ 0.20 m
直径 2.80 m
スパン 9.00 m
形状 Box + pan
製造者 SPXS
バスタイプ Starlink
フェーズステータス In Orbit
所有者/国 SPXS/US

大規模コンステレーション

Loading constellations...